Find Starlink 30418

NORAD ID: 57829 Int'l Des: 2023-138 Owner: SPXS Country: US Constellation: starlink operational
LEOCIRCULAR

当前视图

正在加载3D地球...

About Starlink 30418

Starlink 30418 (NORAD 57829) is a starlink constellation satellite (v2 mini) launched Sep 9, 2023 by SPXS of US. It operates in LEO, CIRCULAR orbit with a mass of 730.00 kg.

即将过境

Passes for default location (London). Set your location on the main map for personalized predictions.

高度历史

Loading altitude history...

两行轨道根数

1 57829U 23138X 26263.23447332 .00000113 00000-0 13643-4 0 9991
2 57829 43.0004 215.3002 0001210 264.9863 95.0851 15.27576219168322
Epoch: Sep 20, 2026 • Age: 17 hours

当前状态

高度 494.0 km
远地点 / 近地点 N/A
速度 7.62 km/s
星下点 -39.18°S, 115.91°E
发射日期 Sep 9, 2023
运行时间 3 years
类型 internet

技术详情

分类 Payload
质量 730.00 kg
干质量 700.00 kg
长度 0.30 m
跨度 29.00 m
形状 ? Box + pan
制造商 SPXS
平台类型 Starlink V2M
阶段状态 In Orbit
所有者/国家 SPXS/US

Most Searched